2023/04/28 23:42:11+0000,-32.15,-42.38,-37.52,-39.63,-50.63,-54.60
2023/04/28 23:43:03+0000,-31.74,-42.30,-37.16,-38.45,-50.65,-54.44
2023/04/28 23:43:55+0000,-31.98,-41.97,-37.71,-39.97,-51.02,-54.58
2023/04/28 23:44:47+0000,-32.40,-42.51,-37.81,-37.85,-51.22,-53.98
2023/04/28 23:45:39+0000,-32.38,-43.31,-37.83,-39.26,-50.69,-54.82
2023/04/28 23:46:31+0000,-32.28,-42.75,-37.50,-39.35,-50.60,-55.13
2023/04/28 23:47:23+0000,-32.09,-42.34,-37.56,-38.99,-52.14,-55.07
2023/04/28 23:48:15+0000,-33.25,-42.26,-37.44,-38.82,-51.31,-54.86
2023/04/28 23:49:07+0000,-31.48,-40.61,-37.48,-39.75,-51.79,-54.95
2023/04/28 23:49:59+0000,-32.59,-41.58,-37.79,-38.29,-51.80,-54.74
2023/04/28 23:50:51+0000,-32.05,-41.03,-37.87,-38.56,-50.72,-55.33
2023/04/28 23:51:51+0000,-31.82,-42.35,-37.05,-38.66,-50.22,-54.64
2023/04/28 23:52:43+0000,-31.92,-41.81,-37.80,-38.70,-51.87,-55.07
2023/04/28 23:53:35+0000,-31.67,-43.51,-37.79,-38.91,-50.62,-54.63
2023/04/28 23:54:27+0000,-32.68,-42.44,-37.88,-38.45,-51.28,-55.03
2023/04/28 23:55:19+0000,-31.84,-41.49,-38.16,-39.85,-50.96,-54.87
2023/04/28 23:56:11+0000,-32.14,-42.22,-37.67,-38.11,-51.24,-54.44
2023/04/28 23:57:03+0000,-31.51,-42.38,-37.94,-38.92,-51.29,-54.13
2023/04/28 23:57:55+0000,-32.39,-42.83,-37.54,-39.05,-51.53,-54.91
2023/04/28 23:58:47+0000,-32.24,-41.42,-37.72,-39.83,-51.69,-54.47
2023/04/28 23:59:39+0000,-31.94,-43.01,-37.58,-38.80,-51.17,-54.37
2023/04/29 00:00:31+0000,-32.16,-43.60,-37.55,-39.48,-51.49,-54.70
2023/04/29 00:01:51+0000,-32.19,-42.54,-37.60,-38.83,-50.87,-54.63
2023/04/29 00:02:43+0000,-31.53,-42.40,-37.88,-39.52,-51.47,-54.48
2023/04/29 00:03:35+0000,-31.59,-44.20,-37.72,-40.26,-51.96,-54.91
2023/04/29 00:04:27+0000,-32.72,-41.34,-37.87,-40.43,-50.99,-54.37
2023/04/29 00:05:19+0000,-32.14,-42.00,-37.96,-39.15,-50.72,-55.16
2023/04/29 00:06:11+0000,-32.00,-44.88,-38.03,-39.92,-51.55,-54.75
2023/04/29 00:07:03+0000,-31.65,-44.19,-37.69,-40.65,-50.34,-54.37
2023/04/29 00:07:55+0000,-32.12,-43.75,-37.61,-40.28,-51.75,-54.15
2023/04/29 00:08:47+0000,-32.52,-43.75,-37.71,-39.60,-51.16,-54.21
2023/04/29 00:09:39+0000,-31.97,-44.55,-37.84,-39.27,-50.47,-54.76
2023/04/29 00:10:31+0000,-32.20,-44.72,-38.07,-40.67,-50.30,-54.36
2023/04/29 00:11:33+0000,-32.35,-44.11,-37.72,-40.94,-50.52,-54.14
2023/04/29 00:12:25+0000,-31.05,-43.44,-37.51,-39.49,-51.17,-54.48
2023/04/29 00:13:17+0000,-32.09,-45.05,-37.14,-39.90,-51.87,-54.79
2023/04/29 00:14:09+0000,-31.57,-43.12,-37.82,-39.18,-50.75,-54.26
2023/04/29 00:15:01+0000,-31.52,-43.91,-37.62,-39.26,-50.95,-53.28
2023/04/29 00:15:53+0000,-31.49,-43.92,-37.30,-39.33,-51.06,-54.50
2023/04/29 00:16:45+0000,-32.47,-42.45,-37.90,-38.62,-50.86,-54.19
2023/04/29 00:17:37+0000,-32.38,-44.11,-37.62,-38.58,-49.79,-53.79
2023/04/29 00:18:29+0000,-31.58,-44.01,-37.67,-38.13,-49.54,-54.41
2023/04/29 00:19:21+0000,-32.21,-43.67,-37.85,-38.54,-50.77,-54.40
2023/04/29 00:20:14+0000,-31.86,-44.14,-37.66,-38.47,-50.89,-54.94
2023/04/29 00:21:13+0000,-32.16,-44.04,-37.90,-39.38,-49.80,-54.21
2023/04/29 00:22:05+0000,-32.39,-43.55,-37.52,-38.55,-50.93,-54.97
2023/04/29 00:22:58+0000,-32.26,-43.81,-37.30,-38.02,-50.95,-54.19
2023/04/29 00:23:50+0000,-32.38,-43.90,-37.76,-39.91,-49.51,-54.31
2023/04/29 00:24:42+0000,-33.27,-43.69,-37.22,-40.00,-52.30,-54.16
2023/04/29 00:25:34+0000,-31.96,-44.21,-37.12,-40.63,-50.71,-54.67
2023/04/29 00:26:26+0000,-31.94,-43.51,-37.71,-39.51,-50.90,-54.32
2023/04/29 00:27:18+0000,-31.56,-43.53,-37.64,-38.67,-50.99,-54.66
2023/04/29 00:28:10+0000,-32.04,-45.51,-37.29,-39.03,-51.24,-55.11
2023/04/29 00:29:02+0000,-32.10,-44.16,-38.03,-40.49,-52.88,-54.69
2023/04/29 00:29:54+0000,-32.03,-45.00,-37.78,-39.20,-51.31,-55.23
2023/04/29 00:30:46+0000,-32.06,-42.91,-37.58,-39.66,-50.56,-54.56
2023/04/29 00:31:45+0000,-32.36,-43.77,-37.73,-38.81,-50.05,-54.40
2023/04/29 00:32:37+0000,-32.21,-44.37,-37.61,-38.88,-50.81,-54.90
2023/04/29 00:33:29+0000,-31.82,-43.34,-37.34,-40.01,-51.32,-54.51
2023/04/29 00:34:21+0000,-32.29,-44.79,-37.47,-40.66,-49.83,-54.44
2023/04/29 00:35:13+0000,-31.83,-43.47,-37.51,-39.37,-50.20,-54.55
2023/04/29 00:36:05+0000,-32.20,-43.72,-37.75,-39.08,-50.33,-54.60
2023/04/29 00:36:58+0000,-32.48,-43.54,-37.38,-39.13,-51.25,-54.67
2023/04/29 00:37:50+0000,-32.66,-43.67,-37.68,-39.18,-50.55,-54.52
2023/04/29 00:38:42+0000,-31.66,-43.65,-37.37,-39.40,-50.83,-54.41
2023/04/29 00:39:34+0000,-32.39,-44.27,-37.46,-38.97,-51.32,-54.82
2023/04/29 00:40:26+0000,-32.21,-43.29,-37.77,-38.88,-47.25,-50.55
2023/04/29 00:41:25+0000,-31.80,-43.25,-37.88,-39.77,-48.30,-52.44
2023/04/29 00:42:17+0000,-31.69,-43.33,-37.75,-40.30,-48.93,-52.43
2023/04/29 00:43:09+0000,-31.96,-42.62,-37.27,-40.22,-49.50,-52.21
2023/04/29 00:44:01+0000,-32.27,-43.26,-37.45,-40.74,-49.85,-51.84
2023/04/29 00:44:53+0000,-31.88,-43.38,-37.66,-41.19,-52.10,-54.23
2023/04/29 00:45:45+0000,-32.42,-43.18,-37.97,-40.60,-52.52,-54.42
2023/04/29 00:46:37+0000,-30.79,-43.43,-37.63,-40.54,-51.95,-54.34
2023/04/29 00:47:29+0000,-32.47,-44.51,-37.53,-39.66,-49.75,-54.46
2023/04/29 00:48:21+0000,-31.87,-43.10,-38.01,-40.39,-50.74,-54.76
2023/04/29 00:49:13+0000,-31.87,-43.48,-37.30,-39.62,-49.88,-54.43
2023/04/29 00:50:06+0000,-31.81,-43.07,-37.50,-40.28,-49.81,-54.88
2023/04/29 00:51:09+0000,-31.36,-42.85,-37.97,-39.36,-50.83,-54.48
2023/04/29 00:52:01+0000,-32.04,-43.16,-37.54,-40.01,-50.59,-54.46
2023/04/29 00:52:53+0000,-31.81,-44.17,-37.76,-40.37,-50.64,-54.57
2023/04/29 00:53:45+0000,-32.25,-43.79,-37.93,-40.62,-50.95,-54.33
2023/04/29 00:54:37+0000,-31.22,-45.62,-37.48,-39.47,-51.00,-54.65
2023/04/29 00:55:29+0000,-32.55,-43.12,-38.09,-40.38,-52.70,-54.15
2023/04/29 00:56:21+0000,-31.44,-43.61,-37.35,-41.03,-52.21,-54.88
2023/04/29 00:57:13+0000,-32.74,-43.88,-38.17,-39.52,-51.33,-54.76
2023/04/29 00:58:05+0000,-31.57,-44.90,-38.14,-41.26,-50.38,-54.45
2023/04/29 00:58:57+0000,-31.77,-42.87,-37.93,-39.65,-51.50,-54.29
2023/04/29 00:59:49+0000,-31.61,-42.69,-37.60,-41.57,-51.42,-54.67
2023/04/29 01:00:41+0000,-32.02,-43.17,-37.99,-40.75,-51.75,-54.10
2023/04/29 01:01:42+0000,-32.00,-44.38,-38.44,-40.49,-51.89,-54.82
2023/04/29 01:02:34+0000,-32.18,-42.77,-37.81,-40.90,-51.12,-53.98
2023/04/29 01:03:26+0000,-32.09,-43.44,-37.72,-41.64,-51.80,-54.55
2023/04/29 01:04:18+0000,-32.14,-43.62,-38.22,-39.56,-52.00,-53.30
2023/04/29 01:05:10+0000,-32.40,-44.24,-37.67,-41.02,-48.61,-50.53
2023/04/29 01:06:02+0000,-32.25,-43.83,-38.08,-41.19,-49.03,-51.13
2023/04/29 01:06:54+0000,-32.12,-42.02,-37.98,-40.43,-49.64,-51.88
2023/04/29 01:07:46+0000,-32.40,-42.17,-38.16,-41.18,-50.10,-52.77
2023/04/29 01:08:38+0000,-31.57,-42.90,-38.44,-41.20,-50.72,-52.25
2023/04/29 01:09:30+0000,-31.95,-43.47,-38.09,-41.00,-50.72,-51.83
2023/04/29 01:10:22+0000,-32.42,-43.65,-38.28,-39.56,-51.00,-51.34
2023/04/29 01:11:22+0000,-32.32,-43.48,-37.55,-40.80,-49.87,-51.36
2023/04/29 01:12:14+0000,-32.33,-43.86,-37.99,-40.09,-50.15,-52.37
2023/04/29 01:13:06+0000,-32.22,-44.15,-38.02,-39.44,-49.74,-52.21
2023/04/29 01:13:58+0000,-32.55,-44.09,-38.05,-39.03,-50.21,-51.99
2023/04/29 01:14:50+0000,-32.51,-43.80,-38.18,-40.54,-50.63,-52.85
2023/04/29 01:15:42+0000,-31.87,-43.46,-38.63,-39.91,-50.63,-53.39
2023/04/29 01:16:34+0000,-32.16,-43.55,-38.05,-40.35,-50.96,-52.45
2023/04/29 01:17:26+0000,-32.56,-43.51,-38.09,-40.37,-50.52,-52.69
2023/04/29 01:18:18+0000,-32.17,-43.49,-37.54,-40.57,-51.20,-53.25
2023/04/29 01:19:10+0000,-32.14,-43.36,-38.70,-40.04,-51.51,-53.67
2023/04/29 01:20:02+0000,-32.77,-44.02,-37.68,-38.96,-50.83,-53.53
2023/04/29 01:21:01+0000,-31.51,-44.20,-37.13,-39.57,-49.75,-53.17
2023/04/29 01:21:53+0000,-32.26,-43.43,-37.84,-39.44,-50.66,-53.01
2023/04/29 01:22:45+0000,-32.52,-44.01,-36.84,-39.70,-50.52,-53.55
2023/04/29 01:23:37+0000,-31.56,-43.69,-37.81,-39.82,-50.69,-52.80
2023/04/29 01:24:29+0000,-32.33,-43.53,-37.68,-39.83,-51.42,-53.44
2023/04/29 01:25:21+0000,-31.95,-43.58,-38.25,-40.28,-51.20,-53.47
2023/04/29 01:26:14+0000,-32.30,-43.74,-38.00,-40.22,-50.29,-52.97
2023/04/29 01:27:06+0000,-32.58,-43.36,-37.38,-39.98,-51.15,-53.45
2023/04/29 01:27:58+0000,-31.94,-43.03,-37.76,-38.62,-50.73,-52.68
2023/04/29 01:28:50+0000,-32.59,-42.94,-37.95,-41.30,-51.08,-53.02
2023/04/29 01:29:42+0000,-31.53,-43.90,-37.38,-40.74,-50.87,-53.00
2023/04/29 01:30:34+0000,-32.51,-44.11,-37.04,-41.31,-50.32,-53.19
2023/04/29 01:31:33+0000,-31.86,-43.73,-37.69,-39.71,-51.25,-53.17
2023/04/29 01:32:25+0000,-31.75,-43.89,-37.87,-40.38,-51.03,-53.40
2023/04/29 01:33:17+0000,-32.36,-43.61,-36.96,-40.87,-51.07,-52.06
2023/04/29 01:34:09+0000,-32.15,-43.79,-37.32,-40.03,-50.76,-53.72
2023/04/29 01:35:01+0000,-31.16,-44.09,-37.74,-40.03,-51.00,-53.05
2023/04/29 01:35:53+0000,-32.73,-43.45,-37.84,-40.87,-51.24,-51.18
2023/04/29 01:36:46+0000,-31.71,-43.33,-37.63,-40.25,-50.72,-52.59
2023/04/29 01:37:38+0000,-31.83,-43.34,-37.26,-40.81,-50.85,-53.14
2023/04/29 01:38:30+0000,-31.51,-43.40,-37.79,-40.84,-50.05,-51.88
2023/04/29 01:39:22+0000,-32.09,-42.94,-37.98,-40.88,-50.87,-52.77
2023/04/29 01:40:14+0000,-32.24,-42.49,-37.32,-40.49,-50.97,-52.89
2023/04/29 01:41:14+0000,-32.20,-44.20,-38.09,-39.78,-51.00,-52.70
2023/04/29 01:42:06+0000,-31.97,-44.22,-37.67,-40.23,-51.13,-53.12
2023/04/29 01:42:58+0000,-32.58,-43.65,-37.75,-40.27,-51.17,-53.46
2023/04/29 01:43:50+0000,-32.28,-43.54,-37.59,-41.49,-50.68,-52.87
2023/04/29 01:44:42+0000,-31.64,-43.50,-37.63,-39.57,-51.65,-52.97
2023/04/29 01:45:34+0000,-32.29,-43.56,-37.16,-41.76,-51.62,-52.76
2023/04/29 01:46:26+0000,-31.99,-43.11,-37.26,-40.43,-50.71,-52.54
2023/04/29 01:47:18+0000,-32.31,-42.50,-36.88,-41.04,-51.02,-53.85
2023/04/29 01:48:10+0000,-32.21,-44.07,-37.84,-41.03,-50.67,-53.65
2023/04/29 01:49:02+0000,-32.32,-44.45,-38.15,-41.00,-50.81,-53.69
2023/04/29 01:49:54+0000,-31.92,-43.88,-37.67,-40.71,-50.90,-53.72
2023/04/29 01:50:46+0000,-32.19,-43.74,-37.58,-41.40,-50.93,-53.65
2023/04/29 01:51:46+0000,-31.55,-43.08,-37.59,-41.45,-50.38,-53.70
2023/04/29 01:52:38+0000,-32.73,-40.50,-37.27,-40.36,-50.95,-53.40
2023/04/29 01:53:30+0000,-31.80,-40.76,-37.84,-41.07,-50.88,-53.63
2023/04/29 01:54:22+0000,-32.35,-41.17,-37.53,-41.76,-51.00,-53.38
2023/04/29 01:55:14+0000,-32.15,-40.65,-37.54,-41.51,-51.10,-53.26
2023/04/29 01:56:06+0000,-31.71,-40.26,-37.77,-41.29,-51.10,-53.37
2023/04/29 01:56:58+0000,-31.63,-40.79,-37.24,-39.89,-51.52,-54.21
2023/04/29 01:57:50+0000,-32.03,-43.54,-38.10,-42.70,-50.40,-53.06
2023/04/29 01:58:42+0000,-31.97,-42.89,-37.11,-40.93,-51.35,-53.37
2023/04/29 01:59:34+0000,-31.76,-42.32,-37.65,-40.41,-50.47,-53.89
2023/04/29 02:00:26+0000,-32.36,-43.14,-37.81,-40.91,-51.34,-53.75
2023/04/29 02:01:27+0000,-32.21,-44.29,-38.05,-41.38,-50.92,-53.81
2023/04/29 02:02:19+0000,-32.65,-43.02,-37.33,-41.78,-51.45,-53.20
2023/04/29 02:03:11+0000,-31.87,-42.40,-37.59,-41.52,-51.41,-53.64
2023/04/29 02:04:03+0000,-32.39,-42.53,-37.57,-41.92,-50.86,-53.65
2023/04/29 02:04:55+0000,-32.68,-43.34,-37.81,-41.53,-50.76,-53.81
2023/04/29 02:05:47+0000,-31.83,-41.99,-37.53,-41.31,-51.25,-54.32
2023/04/29 02:06:39+0000,-32.32,-42.41,-38.39,-42.10,-51.46,-53.31
2023/04/29 02:07:31+0000,-32.74,-40.70,-38.42,-41.51,-51.30,-53.73
2023/04/29 02:08:23+0000,-32.34,-41.87,-38.02,-41.14,-51.42,-53.63
2023/04/29 02:09:15+0000,-32.20,-41.36,-37.63,-41.06,-51.36,-53.48
2023/04/29 02:10:07+0000,-32.53,-40.38,-37.34,-41.16,-50.72,-53.64
2023/04/29 02:11:07+0000,-32.57,-40.14,-37.97,-41.79,-51.26,-53.71
2023/04/29 02:11:59+0000,-32.39,-41.08,-37.94,-40.70,-51.11,-53.55
2023/04/29 02:12:51+0000,-32.19,-40.83,-37.80,-41.71,-51.36,-53.70
2023/04/29 02:13:43+0000,-32.50,-40.94,-37.84,-42.11,-50.97,-53.36
2023/04/29 02:14:35+0000,-30.77,-41.56,-37.38,-41.75,-50.90,-54.12
2023/04/29 02:15:27+0000,-32.60,-41.91,-37.82,-40.31,-51.13,-53.91
2023/04/29 02:16:19+0000,-31.88,-40.39,-38.15,-40.17,-49.86,-53.79
2023/04/29 02:17:11+0000,-32.15,-41.11,-38.60,-39.94,-49.54,-54.22
2023/04/29 02:18:03+0000,-32.52,-42.62,-38.50,-41.84,-48.96,-53.85
2023/04/29 02:18:55+0000,-32.73,-43.10,-37.65,-40.88,-50.96,-54.26
2023/04/29 02:19:47+0000,-31.77,-42.72,-38.57,-41.09,-49.88,-53.28
2023/04/29 02:20:39+0000,-31.66,-43.11,-38.20,-40.42,-49.12,-53.99
2023/04/29 02:21:39+0000,-32.01,-43.26,-37.93,-40.41,-49.55,-53.11
2023/04/29 02:22:31+0000,-32.02,-44.50,-38.41,-39.29,-49.67,-53.18
2023/04/29 02:23:23+0000,-32.03,-42.65,-38.18,-39.73,-49.37,-53.95
2023/04/29 02:24:15+0000,-32.10,-43.03,-38.49,-40.11,-49.28,-53.93
2023/04/29 02:25:07+0000,-31.62,-43.78,-37.66,-39.92,-49.17,-53.66
2023/04/29 02:25:59+0000,-31.88,-43.51,-38.05,-39.93,-49.07,-54.26
2023/04/29 02:26:51+0000,-31.95,-43.50,-38.36,-39.90,-49.61,-53.62
2023/04/29 02:27:43+0000,-32.06,-43.00,-38.35,-39.40,-49.45,-53.99
2023/04/29 02:28:35+0000,-31.85,-43.21,-37.28,-42.00,-49.35,-53.64
2023/04/29 02:29:27+0000,-32.20,-42.80,-37.99,-39.74,-49.58,-53.57
2023/04/29 02:30:19+0000,-32.45,-44.20,-37.12,-40.71,-49.39,-54.17
2023/04/29 02:31:19+0000,-32.77,-41.99,-36.89,-40.09,-50.30,-53.46
2023/04/29 02:32:11+0000,-31.94,-40.98,-37.56,-39.91,-50.28,-53.92
2023/04/29 02:33:03+0000,-32.62,-41.01,-37.36,-38.77,-49.49,-53.71
2023/04/29 02:33:55+0000,-30.96,-41.14,-38.01,-37.00,-49.52,-53.14
2023/04/29 02:34:47+0000,-32.05,-42.92,-38.12,-40.25,-49.43,-52.98
2023/04/29 02:35:39+0000,-32.76,-43.03,-37.46,-39.40,-48.98,-53.87
2023/04/29 02:36:31+0000,-32.32,-42.65,-37.29,-37.70,-49.38,-53.17
2023/04/29 02:37:23+0000,-32.63,-43.51,-37.83,-38.69,-49.76,-53.50
2023/04/29 02:38:15+0000,-32.83,-42.92,-37.87,-37.97,-50.31,-53.29
2023/04/29 02:39:07+0000,-32.84,-43.05,-37.36,-38.50,-49.09,-53.97
2023/04/29 02:39:59+0000,-31.99,-43.33,-38.50,-38.73,-49.12,-53.46
2023/04/29 02:40:51+0000,-32.66,-43.26,-38.00,-38.63,-49.10,-53.11
2023/04/29 02:41:51+0000,-32.27,-43.50,-38.11,-38.27,-49.23,-53.51
2023/04/29 02:42:43+0000,-32.23,-42.41,-38.10,-39.55,-49.57,-52.92
2023/04/29 02:43:35+0000,-32.97,-43.21,-38.14,-40.71,-49.67,-53.38
2023/04/29 02:44:27+0000,-32.48,-43.44,-38.41,-37.26,-49.53,-53.66
2023/04/29 02:45:19+0000,-32.68,-42.80,-37.66,-37.92,-50.25,-53.54
2023/04/29 02:46:11+0000,-32.40,-42.53,-38.15,-38.86,-49.64,-53.16
2023/04/29 02:47:03+0000,-32.45,-42.53,-37.98,-38.59,-49.69,-53.58
2023/04/29 02:47:55+0000,-32.52,-41.77,-37.92,-38.29,-49.69,-53.27
2023/04/29 02:48:47+0000,-32.74,-43.07,-38.15,-38.93,-49.97,-52.88
2023/04/29 02:49:40+0000,-32.31,-41.92,-38.21,-38.97,-49.69,-53.65
2023/04/29 02:50:32+0000,-32.85,-41.08,-38.21,-37.79,-49.62,-53.31
2023/04/29 02:51:32+0000,-32.95,-42.64,-38.29,-39.24,-50.21,-53.69
2023/04/29 02:52:24+0000,-32.64,-43.51,-38.53,-38.35,-49.44,-53.28
2023/04/29 02:53:16+0000,-32.05,-41.97,-38.22,-37.85,-49.13,-52.78
2023/04/29 02:54:08+0000,-32.37,-43.33,-38.46,-37.11,-48.90,-53.06
2023/04/29 02:55:00+0000,-32.48,-41.10,-38.46,-37.44,-49.39,-53.16
2023/04/29 02:55:52+0000,-32.95,-42.50,-37.74,-38.19,-50.02,-53.62
2023/04/29 02:56:44+0000,-32.47,-42.26,-37.58,-36.92,-49.91,-52.68
2023/04/29 02:57:36+0000,-32.26,-41.26,-37.89,-39.56,-49.61,-53.76
2023/04/29 02:58:28+0000,-32.32,-44.46,-37.88,-36.81,-49.92,-53.34
2023/04/29 02:59:20+0000,-32.00,-43.45,-37.88,-36.83,-49.54,-53.38
2023/04/29 03:00:12+0000,-32.12,-44.37,-38.15,-36.95,-50.36,-53.22
2023/04/29 03:01:13+0000,-32.22,-43.14,-38.37,-37.42,-49.31,-53.46
2023/04/29 03:02:05+0000,-32.18,-44.48,-38.70,-37.91,-49.92,-53.97
2023/04/29 03:02:57+0000,-32.35,-43.37,-38.27,-37.85,-49.97,-53.87
2023/04/29 03:03:49+0000,-33.08,-43.54,-38.46,-37.79,-49.30,-53.35
2023/04/29 03:04:41+0000,-32.58,-44.84,-38.39,-38.67,-50.25,-53.48
2023/04/29 03:05:33+0000,-32.43,-44.68,-37.75,-37.85,-50.16,-53.27
2023/04/29 03:06:25+0000,-32.18,-44.75,-37.69,-36.79,-49.85,-53.50
2023/04/29 03:07:17+0000,-32.16,-45.06,-38.30,-39.06,-50.11,-53.69
2023/04/29 03:08:09+0000,-32.49,-44.91,-38.18,-39.32,-49.73,-53.39
2023/04/29 03:09:01+0000,-30.95,-43.85,-38.86,-38.71,-50.48,-53.56
2023/04/29 03:09:53+0000,-32.11,-44.60,-38.12,-38.92,-50.47,-54.00
2023/04/29 03:10:45+0000,-32.00,-43.17,-37.83,-39.30,-50.23,-54.20
2023/04/29 03:11:44+0000,-31.89,-45.44,-38.54,-39.93,-50.18,-53.75
2023/04/29 03:12:36+0000,-32.58,-45.59,-38.49,-39.03,-50.51,-53.18
2023/04/29 03:13:28+0000,-32.29,-42.35,-37.71,-38.12,-50.57,-54.16
2023/04/29 03:14:20+0000,-31.94,-44.90,-38.30,-39.44,-50.12,-53.50
2023/04/29 03:15:13+0000,-32.94,-44.32,-38.47,-38.45,-50.51,-53.23
2023/04/29 03:16:05+0000,-32.47,-45.23,-38.67,-39.83,-50.08,-53.83
2023/04/29 03:16:57+0000,-32.78,-44.80,-39.05,-38.95,-50.27,-53.50
2023/04/29 03:17:49+0000,-32.68,-44.56,-38.93,-39.00,-50.76,-53.73
2023/04/29 03:18:41+0000,-32.67,-44.92,-38.39,-39.27,-50.50,-53.56
2023/04/29 03:19:33+0000,-32.46,-44.82,-38.30,-39.13,-50.09,-53.96
2023/04/29 03:20:25+0000,-32.08,-43.58,-38.44,-39.09,-50.31,-54.34
2023/04/29 03:21:24+0000,-32.71,-43.14,-38.77,-38.52,-50.16,-53.67
2023/04/29 03:22:16+0000,-32.72,-44.76,-38.43,-39.53,-50.54,-53.47
2023/04/29 03:23:08+0000,-31.97,-44.57,-39.17,-39.05,-50.19,-53.91
2023/04/29 03:24:00+0000,-32.22,-43.43,-38.31,-38.71,-49.67,-53.70
2023/04/29 03:24:52+0000,-31.96,-44.64,-38.51,-39.65,-50.17,-53.22
2023/04/29 03:25:44+0000,-32.61,-44.33,-38.46,-39.84,-51.44,-53.73
2023/04/29 03:26:36+0000,-32.89,-46.32,-37.07,-39.36,-51.50,-53.43
2023/04/29 03:27:29+0000,-32.12,-43.08,-38.65,-38.22,-51.16,-54.77
2023/04/29 03:28:21+0000,-31.78,-43.97,-38.12,-38.64,-52.28,-54.13
2023/04/29 03:29:13+0000,-32.36,-43.52,-38.16,-39.13,-52.28,-53.84
2023/04/29 03:30:05+0000,-32.54,-43.09,-37.99,-38.85,-51.74,-53.88
2023/04/29 03:31:05+0000,-32.64,-44.41,-37.76,-38.68,-51.68,-54.43
2023/04/29 03:31:57+0000,-32.07,-42.92,-38.03,-38.98,-51.30,-55.24
2023/04/29 03:32:49+0000,-32.64,-42.57,-37.79,-39.61,-51.44,-54.72
2023/04/29 03:33:41+0000,-33.32,-44.00,-37.43,-37.05,-50.73,-54.39
2023/04/29 03:34:33+0000,-33.22,-43.59,-38.28,-36.67,-51.57,-54.73
2023/04/29 03:35:25+0000,-31.84,-43.31,-37.79,-37.83,-51.53,-55.01
2023/04/29 03:36:17+0000,-33.27,-42.87,-37.92,-38.29,-51.92,-55.02
2023/04/29 03:37:09+0000,-33.10,-44.40,-37.58,-39.40,-52.77,-54.31
2023/04/29 03:38:01+0000,-32.54,-43.84,-38.41,-38.59,-52.28,-54.87
2023/04/29 03:38:53+0000,-33.23,-44.76,-37.64,-39.21,-52.98,-54.82
2023/04/29 03:39:45+0000,-32.63,-44.78,-38.29,-39.56,-52.79,-54.41
2023/04/29 03:40:37+0000,-32.68,-45.12,-37.87,-40.08,-52.46,-54.69
2023/04/29 03:41:37+0000,-32.59,-45.85,-38.55,-40.10,-51.97,-54.79
2023/04/29 03:42:29+0000,-33.01,-42.84,-38.81,-39.76,-52.52,-54.63
2023/04/29 03:43:21+0000,-32.49,-44.94,-38.37,-39.73,-52.48,-54.43
2023/04/29 03:44:13+0000,-32.65,-44.39,-38.80,-39.17,-52.78,-54.76
2023/04/29 03:45:05+0000,-32.63,-44.31,-38.09,-38.72,-52.03,-54.36
2023/04/29 03:45:57+0000,-32.57,-43.99,-37.92,-36.72,-51.90,-55.06
2023/04/29 03:46:49+0000,-32.51,-43.42,-38.37,-36.96,-51.28,-54.64
2023/04/29 03:47:41+0000,-32.35,-43.84,-37.60,-36.73,-52.10,-54.91
2023/04/29 03:48:33+0000,-32.52,-43.22,-37.68,-36.75,-51.82,-55.10
2023/04/29 03:49:25+0000,-33.01,-42.86,-37.71,-36.54,-51.19,-55.09
2023/04/29 03:50:17+0000,-33.10,-42.80,-37.88,-37.00,-51.53,-54.99
2023/04/29 03:51:17+0000,-33.09,-42.63,-37.30,-36.90,-51.40,-55.52
2023/04/29 03:52:09+0000,-32.33,-43.93,-37.58,-37.77,-51.22,-54.72
2023/04/29 03:53:01+0000,-32.60,-42.62,-38.04,-37.01,-51.92,-55.15
2023/04/29 03:53:53+0000,-32.30,-44.09,-38.09,-37.42,-51.49,-55.13
2023/04/29 03:54:45+0000,-32.51,-43.30,-37.74,-37.21,-51.65,-54.51
2023/04/29 03:55:37+0000,-32.87,-43.23,-38.20,-36.99,-51.17,-54.74
2023/04/29 03:56:29+0000,-32.43,-43.74,-38.34,-37.72,-50.70,-55.21
2023/04/29 03:57:21+0000,-32.06,-42.26,-37.82,-37.75,-51.55,-54.38
2023/04/29 03:58:13+0000,-32.07,-42.20,-38.31,-36.88,-49.86,-53.71
2023/04/29 03:59:05+0000,-31.47,-42.78,-38.04,-38.59,-51.06,-54.05
2023/04/29 03:59:57+0000,-32.47,-44.31,-37.94,-38.39,-51.00,-54.18
2023/04/29 04:00:49+0000,-32.16,-42.45,-38.12,-37.95,-51.11,-54.21
2023/04/29 04:01:49+0000,-32.30,-42.01,-38.11,-39.28,-51.05,-54.98
2023/04/29 04:02:41+0000,-31.80,-43.95,-38.22,-39.49,-51.68,-54.34
2023/04/29 04:03:33+0000,-32.11,-44.74,-38.33,-38.94,-51.24,-54.44
2023/04/29 04:04:25+0000,-32.27,-44.80,-37.95,-38.76,-51.18,-54.80
2023/04/29 04:05:17+0000,-31.47,-42.91,-37.96,-39.14,-51.35,-54.92
2023/04/29 04:06:09+0000,-32.71,-43.53,-37.31,-39.71,-50.86,-54.69
2023/04/29 04:07:01+0000,-32.32,-44.31,-37.34,-39.55,-52.36,-54.68
2023/04/29 04:07:53+0000,-31.93,-43.67,-38.08,-39.01,-51.45,-54.24
2023/04/29 04:08:45+0000,-32.05,-43.18,-38.20,-38.74,-51.36,-54.81
2023/04/29 04:09:37+0000,-32.20,-42.67,-37.32,-39.62,-52.24,-54.65
2023/04/29 04:10:29+0000,-32.40,-43.31,-37.54,-39.72,-51.63,-54.47
2023/04/29 04:11:44+0000,-32.13,-42.42,-37.55,-38.71,-52.23,-54.70
2023/04/29 04:12:36+0000,-32.25,-47.40,-36.96,-38.67,-51.69,-54.84
2023/04/29 04:13:28+0000,-31.85,-46.24,-37.65,-39.33,-52.12,-54.54
2023/04/29 04:14:20+0000,-31.92,-44.89,-38.08,-39.55,-51.45,-54.58
2023/04/29 04:15:12+0000,-32.11,-45.62,-37.85,-39.00,-51.05,-54.84
2023/04/29 04:16:04+0000,-32.58,-45.75,-37.62,-39.57,-51.10,-54.66
2023/04/29 04:16:56+0000,-32.19,-45.57,-37.94,-38.62,-50.31,-54.50
2023/04/29 04:17:48+0000,-32.10,-44.31,-37.57,-38.32,-50.42,-54.17
2023/04/29 04:18:40+0000,-33.18,-44.91,-37.55,-39.47,-51.42,-54.53
2023/04/29 04:19:32+0000,-31.92,-46.87,-38.31,-38.69,-50.42,-54.60
2023/04/29 04:20:24+0000,-32.07,-47.40,-37.70,-39.17,-50.80,-54.35
2023/04/29 04:21:24+0000,-31.52,-45.97,-37.96,-38.47,-50.49,-54.85
2023/04/29 04:22:16+0000,-31.53,-45.18,-37.78,-39.18,-50.32,-54.51
2023/04/29 04:23:08+0000,-32.73,-45.87,-37.82,-38.95,-50.56,-54.87
2023/04/29 04:24:00+0000,-32.12,-45.08,-37.17,-38.98,-50.39,-54.92
2023/04/29 04:24:52+0000,-32.36,-47.47,-37.65,-39.53,-50.37,-54.86
2023/04/29 04:25:44+0000,-31.98,-45.57,-37.75,-38.96,-51.03,-54.86
2023/04/29 04:26:36+0000,-32.37,-47.43,-37.69,-39.14,-50.76,-54.75
2023/04/29 04:27:28+0000,-32.49,-45.04,-38.69,-39.85,-50.74,-54.62
2023/04/29 04:28:20+0000,-32.44,-45.75,-37.59,-39.39,-50.79,-54.44
2023/04/29 04:29:12+0000,-31.58,-45.35,-38.11,-38.64,-50.94,-55.07
2023/04/29 04:30:04+0000,-32.09,-43.99,-38.46,-39.12,-51.69,-54.16
2023/04/29 04:31:04+0000,-32.09,-45.10,-37.65,-38.81,-50.98,-55.23
2023/04/29 04:31:56+0000,-32.35,-45.82,-37.96,-39.05,-51.16,-54.84
2023/04/29 04:32:48+0000,-31.36,-46.65,-37.79,-39.64,-50.61,-53.62
2023/04/29 04:33:40+0000,-32.28,-44.93,-38.28,-40.03,-50.57,-53.83
2023/04/29 04:34:32+0000,-31.77,-45.16,-38.17,-39.45,-50.86,-53.83
2023/04/29 04:35:24+0000,-32.15,-46.30,-37.85,-38.54,-51.13,-54.74
2023/04/29 04:36:16+0000,-31.51,-44.93,-37.49,-39.31,-50.41,-54.58
2023/04/29 04:37:08+0000,-32.65,-45.47,-38.16,-39.39,-50.69,-54.49
2023/04/29 04:38:01+0000,-32.14,-46.15,-37.65,-40.09,-49.87,-54.36
2023/04/29 04:38:53+0000,-32.61,-47.58,-37.87,-38.67,-51.07,-53.81
2023/04/29 04:39:45+0000,-32.66,-44.94,-37.90,-39.15,-50.48,-53.71
2023/04/29 04:40:37+0000,-33.71,-46.80,-37.78,-38.54,-51.52,-54.59
2023/04/29 04:41:36+0000,-32.31,-47.14,-38.05,-37.84,-51.02,-54.00
2023/04/29 04:42:29+0000,-32.44,-45.13,-38.13,-37.94,-52.01,-54.71
2023/04/29 04:43:21+0000,-32.38,-46.11,-37.66,-37.70,-51.88,-54.33
2023/04/29 04:44:13+0000,-33.06,-46.28,-38.01,-38.63,-51.56,-53.93
2023/04/29 04:45:05+0000,-33.65,-45.15,-37.97,-38.26,-51.35,-53.76
2023/04/29 04:45:57+0000,-31.97,-46.18,-37.63,-40.12,-50.48,-53.87
2023/04/29 04:46:49+0000,-32.53,-45.25,-37.58,-39.59,-51.08,-53.97
2023/04/29 04:47:41+0000,-32.63,-46.21,-37.99,-39.96,-50.99,-54.07
2023/04/29 04:48:33+0000,-32.85,-47.04,-37.73,-39.95,-51.04,-54.58
2023/04/29 04:49:25+0000,-31.35,-44.70,-37.68,-39.67,-50.56,-53.97
2023/04/29 04:50:17+0000,-32.74,-46.14,-37.59,-39.86,-50.25,-53.97
2023/04/29 04:51:16+0000,-32.12,-44.74,-37.70,-39.70,-50.34,-54.37
2023/04/29 04:52:08+0000,-32.63,-45.97,-38.66,-39.78,-50.47,-53.83
2023/04/29 04:53:00+0000,-32.36,-45.38,-37.88,-39.80,-50.78,-54.63
2023/04/29 04:53:52+0000,-31.99,-46.29,-37.68,-39.89,-50.53,-53.92
2023/04/29 04:54:44+0000,-32.27,-44.49,-38.68,-38.99,-50.74,-54.49
2023/04/29 04:55:36+0000,-32.46,-45.42,-38.00,-39.44,-50.44,-53.65
2023/04/29 04:56:28+0000,-32.11,-44.75,-38.18,-39.86,-50.17,-53.66